Satellite: COMPASS
Catalog number: 32787
Epoch time:      12271.74733992
Element set:     421
Inclination:      097.7890 deg
RA of node:       330.7754 deg
Eccentricity:    0.0016235
Arg of perigee:   085.0346 deg
Mean anomaly:     275.2701 deg
Mean motion:   14.84379070 rev/day
Decay rate:      3.145e-05 rev/day^2
Epoch rev:           23902
Checksum:              307

Satellite: AAUSAT2
Catalog number: 32788
Epoch time:      12270.68282206
Element set:    0412
Inclination:      097.7897 deg
RA of node:       330.1754 deg
Eccentricity:    0.0015713
Arg of perigee:   088.1604 deg
Mean anomaly:     272.1438 deg
Mean motion:   14.84724243 rev/day
Decay rate:      2.979e-05 rev/day^2
Epoch rev:           23889
Checksum:              328

Satellite: DO-64
Catalog number: 32789
Epoch time:      12270.75479471
Element set:    0429
Inclination:      097.8032 deg
RA of node:       332.6763 deg
Eccentricity:    0.0015531
Arg of perigee:   084.7377 deg
Mean anomaly:     275.5602 deg
Mean motion:   14.86473727 rev/day
Decay rate:      4.727e-05 rev/day^2
Epoch rev:           23896
Checksum:              353

Satellite: CO-66
Catalog number: 32791
Epoch time:      12270.76788497
Element set:    0410
Inclination:      097.7880 deg
RA of node:       329.4734 deg
Eccentricity:    0.0017012
Arg of perigee:   089.6418 deg
Mean anomaly:     270.6697 deg
Mean motion:   14.83719214 rev/day
Decay rate:      1.632e-05 rev/day^2
Epoch rev:           23880
Checksum:              344

Satellite: RS-30
Catalog number: 32953
Epoch time:      12271.83169720
Element set:     179
Inclination:      082.5005 deg
RA of node:       231.2990 deg
Eccentricity:    0.0020381
Arg of perigee:   083.0986 deg
Mean anomaly:     277.2416 deg
Mean motion:   12.43027797 rev/day
Decay rate:        1.0e-07 rev/day^2
Epoch rev:           19731
Checksum:              289

Satellite: PHARMSAT
Catalog number: 35002
Epoch time:      12226.86484473
Element set:      78
Inclination:      040.4341 deg
RA of node:       050.6671 deg
Eccentricity:    0.0012079
Arg of perigee:   300.9773 deg
Mean anomaly:     059.0492 deg
Mean motion:   16.39309245 rev/day
Decay rate:   7.728342e-02 rev/day^2
Epoch rev:           18355
Checksum:              302

Satellite: METEOR-M
Catalog number: 35865
Epoch time:      12271.74847681
Element set:     817
Inclination:      098.6426 deg
RA of node:       324.0905 deg
Eccentricity:    0.0003141
Arg of perigee:   104.4310 deg
Mean anomaly:     255.7213 deg
Mean motion:   14.21869747 rev/day
Decay rate:       -1.1e-07 rev/day^2
Epoch rev:           15717
Checksum:              290

Satellite: RS-38
Catalog number: 35869
Epoch time:      12271.68382926
Element set:     802
Inclination:      098.6383 deg
RA of node:       324.0054 deg
Eccentricity:    0.0005264
Arg of perigee:   108.1791 deg
Mean anomaly:     251.9975 deg
Mean motion:   14.22088279 rev/day
Decay rate:        2.0e-07 rev/day^2
Epoch rev:           15718
Checksum:              324

Satellite: JUGNU
Catalog number: 37839
Epoch time:      12271.84697633
Element set:     234
Inclination:      019.9591 deg
RA of node:       096.3049 deg
Eccentricity:    0.0020463
Arg of perigee:   274.8662 deg
Mean anomaly:     084.9304 deg
Mean motion:   14.12084536 rev/day
Decay rate:       6.20e-06 rev/day^2
Epoch rev:            4977
Checksum:              319

Satellite: SRMSAT
Catalog number: 37841
Epoch time:      12271.68754735
Element set:     237
Inclination:      019.9697 deg
RA of node:       104.1580 deg
Eccentricity:    0.0012708
Arg of perigee:   234.7161 deg
Mean anomaly:     125.2117 deg
Mean motion:   14.10163947 rev/day
Decay rate:       2.64e-06 rev/day^2
Epoch rev:            4967
Checksum:              297

Satellite: RAX-2
Catalog number: 37853
Epoch time:      12271.85085828
Element set:     297
Inclination:      101.7057 deg
RA of node:       358.8024 deg
Eccentricity:    0.0243847
Arg of perigee:   058.0063 deg
Mean anomaly:     304.4585 deg
Mean motion:   14.80886267 rev/day
Decay rate:      5.972e-05 rev/day^2
Epoch rev:            4958
Checksum:              341

Satellite: AUBIESAT
Catalog number: 37854
Epoch time:      12270.89872394
Element set:    0309
Inclination:      101.7076 deg
RA of node:       357.8032 deg
Eccentricity:    0.0244701
Arg of perigee:   060.1861 deg
Mean anomaly:     302.3428 deg
Mean motion:   14.81328491 rev/day
Decay rate:      5.796e-05 rev/day^2
Epoch rev:           04944
Checksum:              310

Satellite: HRBE
Catalog number: 37855
Epoch time:      12270.85605828
Element set:    0297
Inclination:      101.7090 deg
RA of node:       357.6618 deg
Eccentricity:    0.0245095
Arg of perigee:   060.1561 deg
Mean anomaly:     302.3759 deg
Mean motion:   14.81141503 rev/day
Decay rate:      5.620e-05 rev/day^2
Epoch rev:           04943
Checksum:              296

Satellite: RS-39
Catalog number: 38051
Epoch time:      12271.87262909
Element set:     740
Inclination:      051.6390 deg
RA of node:       029.9366 deg
Eccentricity:    0.0013581
Arg of perigee:   046.2558 deg
Mean anomaly:     047.6193 deg
Mean motion:   15.25977376 rev/day
Decay rate:     1.1944e-04 rev/day^2
Epoch rev:            3764
Checksum:              332

Satellite: E-STAR
Catalog number: 38079
Epoch time:      12271.80504012
Element set:     534
Inclination:      069.4754 deg
RA of node:       080.0463 deg
Eccentricity:    0.0710948
Arg of perigee:   117.9298 deg
Mean anomaly:     249.6285 deg
Mean motion:   14.21997171 rev/day
Decay rate:     7.3183e-04 rev/day^2
Epoch rev:            3213
Checksum:              311

Satellite: GOLIAT
Catalog number: 38085
Epoch time:      12271.66089675
Element set:     502
Inclination:      069.4795 deg
RA of node:       081.0245 deg
Eccentricity:    0.0717120
Arg of perigee:   118.5139 deg
Mean anomaly:     249.0888 deg
Mean motion:   14.20802849 rev/day
Decay rate:     6.9176e-04 rev/day^2
Epoch rev:            3209
Checksum:              324

Satellite: HORYU-2
Catalog number: 38340
Epoch time:      12271.87588310
Element set:     168
Inclination:      098.1823 deg
RA of node:       211.8810 deg
Eccentricity:    0.0013314
Arg of perigee:   009.7931 deg
Mean anomaly:     350.3597 deg
Mean motion:   14.70203550 rev/day
Decay rate:      1.976e-05 rev/day^2
Epoch rev:            1956
Checksum:              293

Satellite: RS-40
Catalog number: 38736
Epoch time:      12270.67235512
Element set:    0066
Inclination:      082.4798 deg
RA of node:       319.4339 deg
Eccentricity:    0.0018758
Arg of perigee:   179.0918 deg
Mean anomaly:     181.0198 deg
Mean motion:   12.42646652 rev/day
Decay rate:        1.0e-07 rev/day^2
Epoch rev:           00751
Checksum:              311

Satellite: PROITERES
Catalog number: 38756
Epoch time:      12271.82554833
Element set:      70
Inclination:      098.2838 deg
RA of node:       337.6969 deg
Eccentricity:    0.0011773
Arg of perigee:   217.9743 deg
Mean anomaly:     142.0625 deg
Mean motion:   14.73883638 rev/day
Decay rate:       5.75e-06 rev/day^2
Epoch rev:             274
Checksum:              330

Satellite: OBJECT D
Catalog number: 38761
Epoch time:      12268.59018760
Element set:    0018
Inclination:      064.6727 deg
RA of node:       007.9061 deg
Eccentricity:    0.0219362
Arg of perigee:   286.4122 deg
Mean anomaly:     205.1345 deg
Mean motion:   14.79120532 rev/day
Decay rate:      2.110e-05 rev/day^2
Epoch rev:           00156
Checksum:              270

Satellite: OBJECT E
Catalog number: 38762
Epoch time:      12264.52772095
Element set:    0014
Inclination:      064.6719 deg
RA of node:       020.3496 deg
Eccentricity:    0.0219119
Arg of perigee:   287.3135 deg
Mean anomaly:     173.9581 deg
Mean motion:   14.79110077 rev/day
Decay rate:      1.246e-05 rev/day^2
Epoch rev:           00096
Checksum:              299

Satellite: OBJECT F
Catalog number: 38763
Epoch time:      12268.58833758
Element set:    0016
Inclination:      064.6732 deg
RA of node:       007.9137 deg
Eccentricity:    0.0219633
Arg of perigee:   286.4343 deg
Mean anomaly:     195.0416 deg
Mean motion:   14.79113104 rev/day
Decay rate:      1.955e-05 rev/day^2
Epoch rev:           00140
Checksum:              299

Satellite: OBJECT G
Catalog number: 38764
Epoch time:      12268.59053544
Element set:    0019
Inclination:      064.6735 deg
RA of node:       007.9112 deg
Eccentricity:    0.0219414
Arg of perigee:   286.3324 deg
Mean anomaly:     204.3843 deg
Mean motion:   14.79048217 rev/day
Decay rate:      1.915e-05 rev/day^2
Epoch rev:           00156
Checksum:              295

Satellite: OBJECT H
Catalog number: 38765
Epoch time:      12268.79450975
Element set:    0017
Inclination:      064.6726 deg
RA of node:       007.2677 deg
Eccentricity:    0.0219363
Arg of perigee:   286.2238 deg
Mean anomaly:     218.6495 deg
Mean motion:   14.79262528 rev/day
Decay rate:      2.431e-05 rev/day^2
Epoch rev:           00159
Checksum:              331

Satellite: OBJECT J
Catalog number: 38766
Epoch time:      12268.58823291
Element set:    0017
Inclination:      064.6734 deg
RA of node:       007.9103 deg
Eccentricity:    0.0219070
Arg of perigee:   286.1068 deg
Mean anomaly:     195.5813 deg
Mean motion:   14.79138683 rev/day
Decay rate:      2.514e-05 rev/day^2
Epoch rev:           00156
Checksum:              309

/EX




More information about the Keps mailing list